User: anonymous   Login
Location: Unspecified
(0.0000°N, 0.0000°E)
Time: 22:19:41
(UTC+00:00)
Language:

STARLINK-36074 - Orbit

View from above orbital plane
View from above orbital plane
View from above satellite
View from above satellite

Ground track
Ground track

The orbit is defined by the following mean orbital elements,

1 66900U          26145.58335647 +.00000000 +00000-0 +15805-2 0 00004
2 66900  53.1600  26.8809 0001008  97.6612  81.4816 15.34361672    07
Epoch (UTC): 25 May 2026 14:00:01
Eccentricity: 0.0001008
inclination: 53.1600°
perigee height: 462 km
apogee height: 464 km
right ascension of ascending node: 26.8809°
argument of perigee: 97.6612°
revolutions per day: 15.34361672
mean anomaly at epoch: 81.4816°

The dashed part of the orbit path shows where the satellite is in the earth's shadow,  

DLR